Forrest Park, Northwest Territories

6:08 AM MDT on April 27, 2017 (GMT -0600)
Forrest Park

Weather History for 71936 - April, 2014

Change the Weather History Date:

Tuesday, April 15, 2014

  Actual Average Record
Temperature  
Mean Temperature 12 °F -  
Max Temperature 26 °F 40 °F - ()
Min Temperature -2 °F 21 °F - ()
Degree Days  
Heating Degree Days 53    
Moisture  
Dew Point -6 °F    
Average Humidity 44    
Maximum Humidity 66    
Minimum Humidity 15    
Precipitation  
Precipitation 0.00 in 0.02 in - ()
Sea Level Pressure  
Sea Level Pressure 30.44 in    
Wind  
Wind Speed 6 mph ()    
Max Wind Speed 15 mph    
Max Gust Speed 18 mph    
Visibility 15.0 miles    
Events      
T = Trace of Precipitation, MM = Missing Value Source: Averaged Metar Reports

Daily Weather History Graph

Daily Weather History Graph

Search for Another Location

Airport or City:

Trip Planner

Search our weather history database for the weather conditions in past years. The results will help you decide how hot, cold, wet, or windy it might be!

Date:

Astronomy

Apr. 15, 2014 Rise Set
Actual Time 6:12 AM MDT 9:05 PM MDT
Civil Twilight 5:21 AM MDT 9:56 PM MDT
Nautical Twilight 4:09 AM MDT 11:09 PM MDT
Astronomical Twilight 2:10 AM MDT 1:05 AM MDT
Moon 10:05 PM MDT (4/15) 6:19 AM MDT (4/15)
Length of Visible Light 16h 35m
Length of Day
14h 52m
Full, 100% of the Moon is Illuminated
Apr 15
Full
Apr 22
Last Quarter
Apr 29
New
May 6
First Quarter
May 14
Full

Hourly Weather History & Observations

Time (MDT) Temp. Windchill Dew Point Humidity Pressure Visibility Wind Dir Wind Speed Gust Speed Precip Events Conditions
12:00 AM 11 °F - -4 °F 35% 30.34 in 15 mi ENE 9.2 mph - -  
12:00 AM 10.4 °F -1.5 °F -4.0 °F 52% 30.33 in 15.0 mi ENE 8.1 mph - N/A   Clear
1:00 AM 8.6 °F -5.5 °F -5.8 °F 52% 30.35 in 15.0 mi East 10.4 mph - N/A   Clear
2:00 AM 6.8 °F -8.6 °F -5.8 °F 56% 30.36 in 15.0 mi East 11.5 mph - N/A   Clear
3:00 AM 5.0 °F -13.0 °F -7.6 °F 56% 30.36 in 15.0 mi East 15.0 mph - N/A   Clear
4:00 AM 3.2 °F -13.9 °F -7.6 °F 61% 30.38 in 15.0 mi East 12.7 mph 18.4 mph N/A   Clear
5:00 AM -0.4 °F -10.4 °F -9.4 °F 66% 30.41 in 15.0 mi North 4.6 mph - N/A   Clear
6:00 AM -2 °F - -11 °F 51% 30.41 in 15 mi North 4.6 mph - -  
6:00 AM -2.2 °F -12.5 °F -11.2 °F 66% 30.41 in 15.0 mi North 4.6 mph - N/A   Clear
7:00 AM -2.2 °F -16.8 °F -11.2 °F 66% 30.43 in 15.0 mi ENE 8.1 mph - N/A   Clear
8:00 AM 1.4 °F -13.5 °F -9.4 °F 61% 30.45 in 15.0 mi East 9.2 mph - N/A   Partly Cloudy
9:00 AM 5.0 °F -10.0 °F -7.6 °F 56% 30.46 in 15.0 mi East 10.4 mph - N/A   Clear
10:00 AM 8.6 °F -2.6 °F -5.8 °F 52% 30.47 in 15.0 mi East 6.9 mph - N/A   Clear
11:00 AM 12.2 °F 2.9 °F -5.8 °F 45% 30.48 in 15.0 mi East 5.8 mph - N/A   Clear
12:00 PM 17 °F - -6 °F 20% 30.49 in 15 mi ESE 4.6 mph - -  
12:00 PM 15.8 °F 8.6 °F -5.8 °F 38% 30.49 in 15.0 mi ESE 4.6 mph - N/A   Clear
1:00 PM 19.4 °F - -5.8 °F 33% 30.49 in 15.0 mi Calm Calm - N/A   Clear
2:00 PM 21.2 °F 14.9 °F -5.8 °F 30% 30.49 in 15.0 mi NW 4.6 mph - N/A   Clear
3:00 PM 23.0 °F - -7.6 °F 26% 30.48 in 15.0 mi Calm Calm - N/A   Clear
4:00 PM 24.8 °F - -5.8 °F 26% 30.48 in 15.0 mi Variable 2.3 mph - N/A   Clear
5:00 PM 24.8 °F - -4.0 °F 28% 30.48 in 15.0 mi Variable 2.3 mph - N/A   Clear
6:00 PM 26 °F - -3 °F 15% 30.48 in 15 mi South 3.5 mph - -  
6:00 PM 26.6 °F - -2.2 °F 29% 30.48 in 15.0 mi South 2.3 mph - N/A   Clear
7:00 PM 24.8 °F 17.9 °F -0.4 °F 34% 30.48 in 15.0 mi WSW 5.8 mph - N/A   Clear
8:00 PM 23.0 °F 15.8 °F -0.4 °F 36% 30.48 in 15.0 mi SW 5.8 mph - N/A   Clear
9:00 PM 17.6 °F 12.3 °F -2.2 °F 42% 30.48 in 15.0 mi SW 3.5 mph - N/A   Clear
10:00 PM 10.4 °F - -5.8 °F 48% 30.49 in 15.0 mi SW 2.3 mph - N/A   Clear
11:00 PM 10.4 °F 2.2 °F -4.0 °F 52% 30.48 in 15.0 mi South 4.6 mph - N/A   Clear